sat.trackr.live / text

‹ back to catalog

STARLINK-34887

NORAD 65103 · 2025-167AB

PAYLOAD ACTIVE UNKNOWN

§ Identity

Operator
Country
US
Launch date
2025-08-04
Launch site
AFETR
Launch vehicle
Mass (kg)
RCS (m²)

Purposes: comms

External: N2YO · Heavens-Above · Gunter

§ Orbital elements

Epoch: 2026-05-24T23:16:06.083040Z

Period
93.85 min
Inclination
53.1589°
Eccentricity
0.0000864
Mean motion
15.34402001 rev/d
Perigee alt
462.1 km
Apogee alt
463.3 km
Semi-major
6,840.8 km
B*
3.9252e-4
RAAN
31.9846°
Arg perigee
72.6057°
Mean anomaly
287.5040°
Rev number
4,516

§ Raw data

STARLINK-348871 65103U 25167AB  26144.96951485  .00012909  00000+0  39252-3 0  99942 65103  53.1589  31.9846 0000864  72.6057 287.5040 15.34402001 45166

JSON: /api/v1/satellites/65103 · /tle

For live sub-satellite position, see the globe view (requires WebGL).

§ Visibility from observer

Set your observer location to see the next 7 days of passes ≥ 10°. The values pass through the URL so the page stays shareable.

No JS? Fill the form by hand. The geolocation button needs JavaScript.